Buckeye, AZ

4:26 PM MST on October 13, 2019 (GMT -0700)
Buckeye Municipal

Weather History for KBXK - September, 2019

Change the Weather History Date:

Monday, September 16, 2019

  Actual Average (WUND) Record (WUND)
Temperature  
Mean Temperature 84 °F -  
Max Temperature 96 °F - - (-1)
Min Temperature 71 °F - - (-1)
Cooling Degree Days 18    
Growing Degree Days 34 (Base 50)    
Moisture  
Dew Point 60 °F    
Average Humidity 42    
Maximum Humidity 83    
Minimum Humidity 27    
Precipitation  
Precipitation 1.25 in - - ()
Sea Level Pressure  
Sea Level Pressure 29.86 in    
Wind  
Wind Speed 6 mph ()    
Max Wind Speed 30 mph    
Max Gust Speed 51 mph    
Visibility 9.4 miles    
Events      
Averages and records for this station are not official NWS values.
T = Trace of Precipitation, MM = Missing Value Source: Averaged Metar Reports

Daily Weather History Graph

Daily Weather History Graph

Search for Another Location

Airport or City:

Astronomy

Sep. 16, 2019 Rise Set
Actual Time 6:14 AM MST 6:35 PM MST
Civil Twilight 5:49 AM MST 7:00 PM MST
Nautical Twilight 5:20 AM MST 7:29 PM MST
Astronomical Twilight 4:51 AM MST 7:59 PM MST
Moon 8:18 PM MST (9/16) 8:20 AM MST (9/16)
Length of Visible Light 13h 10m
Length of Day
12h 21m
Waning Gibbous, 94% of the Moon is Illuminated
Sep 16
Waning Gibbous
Sep 21
Last Quarter
Sep 28
New
Oct 5
First Quarter
Oct 13
Full

Hourly Weather History & Observations

Time (MST) Temp. Heat Index Dew Point Humidity Pressure Visibility Wind Dir Wind Speed Gust Speed Precip Events Conditions
12:15 AM 86.0 °F 84.5 °F 55.4 °F 35% 29.84 in 10.0 mi East 9.2 mph - N/A   Unknown
12:35 AM 86.0 °F 84.5 °F 55.4 °F 35% 29.85 in 10.0 mi ESE 8.1 mph - N/A   Unknown
12:55 AM 86.0 °F 84.5 °F 55.4 °F 35% 29.85 in 10.0 mi East 9.2 mph - N/A   Unknown
1:15 AM 86.0 °F 84.5 °F 55.4 °F 35% 29.86 in 10.0 mi ESE 6.9 mph - N/A   Unknown
1:35 AM 86.0 °F 84.5 °F 55.4 °F 35% 29.86 in 10.0 mi East 5.8 mph - N/A   Unknown
1:55 AM 84.2 °F 83.0 °F 55.4 °F 37% 29.86 in 10.0 mi East 8.1 mph - N/A   Unknown
2:15 AM 84.2 °F 83.5 °F 57.2 °F 40% 29.86 in 10.0 mi East 4.6 mph - N/A   Mostly Cloudy
2:35 AM 86.0 °F 84.5 °F 55.4 °F 35% 29.85 in 10.0 mi East 4.6 mph - N/A   Clear
2:55 AM 84.2 °F 83.0 °F 55.4 °F 37% 29.86 in 10.0 mi Calm Calm - N/A   Partly Cloudy
3:15 AM 84.2 °F 83.5 °F 57.2 °F 40% 29.86 in 10.0 mi East 5.8 mph - N/A   Clear
3:35 AM 84.2 °F 83.0 °F 55.4 °F 37% 29.86 in 10.0 mi Calm Calm - N/A   Unknown
3:55 AM 84.2 °F 83.5 °F 57.2 °F 40% 29.86 in 10.0 mi East 6.9 mph - N/A   Unknown
4:15 AM 84.2 °F 83.5 °F 57.2 °F 40% 29.86 in 10.0 mi East 4.6 mph - N/A   Unknown
4:35 AM 84.2 °F 83.5 °F 57.2 °F 40% 29.86 in 10.0 mi Calm Calm - N/A   Unknown
4:55 AM 84.2 °F 83.5 °F 57.2 °F 40% 29.87 in 10.0 mi Calm Calm - N/A   Unknown
5:15 AM 82.4 °F 81.7 °F 55.4 °F 39% 29.87 in 10.0 mi Calm Calm - N/A   Unknown
5:35 AM 80.6 °F 80.8 °F 57.2 °F 45% 29.88 in 6.0 mi Calm Calm - N/A   Haze
5:55 AM 80.6 °F 80.8 °F 57.2 °F 45% 29.88 in 8.0 mi Calm Calm - N/A   Unknown
6:15 AM 82.4 °F 81.7 °F 55.4 °F 39% 29.88 in 10.0 mi East 5.8 mph - N/A   Unknown
6:35 AM 82.4 °F 82.0 °F 57.2 °F 42% 29.89 in 10.0 mi ENE 4.6 mph - N/A   Clear
6:55 AM 84.2 °F 83.5 °F 57.2 °F 40% 29.90 in 10.0 mi East 4.6 mph - N/A   Clear
7:15 AM 86.0 °F 84.5 °F 55.4 °F 35% 29.90 in 10.0 mi East 8.1 mph - N/A   Clear
7:35 AM 87.8 °F 86.5 °F 57.2 °F 35% 29.91 in 10.0 mi East 9.2 mph - N/A   Clear
7:55 AM 87.8 °F 87.1 °F 59.0 °F 38% 29.91 in 10.0 mi East 10.4 mph - N/A   Clear
8:15 AM 87.8 °F 87.6 °F 60.8 °F 40% 29.91 in 10.0 mi East 8.1 mph - N/A   Clear
8:35 AM 89.6 °F 89.5 °F 60.8 °F 38% 29.92 in 10.0 mi Calm Calm - N/A   Clear
8:55 AM 87.8 °F 88.5 °F 62.6 °F 43% 29.92 in 10.0 mi ESE 4.6 mph - N/A   Clear
9:15 AM 87.8 °F 88.5 °F 62.6 °F 43% 29.93 in 10.0 mi SE 5.8 mph - N/A   Clear
9:35 AM 87.8 °F 88.5 °F 62.6 °F 43% 29.92 in 10.0 mi ESE 5.8 mph - N/A   Clear
9:55 AM 89.6 °F 90.1 °F 62.6 °F 40% 29.92 in 10.0 mi Calm Calm - N/A   Clear
10:15 AM 89.6 °F 90.1 °F 62.6 °F 40% 29.92 in 10.0 mi Variable 4.6 mph - N/A   Clear
10:35 AM 89.6 °F 89.5 °F 60.8 °F 38% 29.92 in 10.0 mi SE 5.8 mph - N/A   Clear
10:55 AM 89.6 °F 89.5 °F 60.8 °F 38% 29.91 in 10.0 mi SSE 4.6 mph - N/A   Clear
11:15 AM 91.4 °F 90.7 °F 59.0 °F 34% 29.91 in 10.0 mi Variable 3.5 mph - N/A   Clear
11:35 AM 91.4 °F 90.7 °F 59.0 °F 34% 29.90 in 10.0 mi Variable 3.5 mph - N/A   Clear
11:55 AM 91.4 °F 91.4 °F 60.8 °F 36% 29.89 in 10.0 mi South 3.5 mph - N/A   Clear
12:15 PM 91.4 °F 91.4 °F 60.8 °F 36% 29.89 in 10.0 mi SSW 3.5 mph - N/A   Clear
12:35 PM 91.4 °F 91.4 °F 60.8 °F 36% 29.88 in 10.0 mi Calm Calm - N/A   Clear
12:55 PM 93.2 °F 93.3 °F 60.8 °F 34% 29.88 in 10.0 mi South 3.5 mph - N/A   Clear
1:15 PM 93.2 °F 93.3 °F 60.8 °F 34% 29.87 in 10.0 mi SSW 4.6 mph - N/A   Clear
1:35 PM 93.2 °F 92.6 °F 59.0 °F 32% 29.85 in 10.0 mi Variable 4.6 mph - N/A   Clear
1:55 PM 95.0 °F 94.4 °F 59.0 °F 30% 29.84 in 10.0 mi South 5.8 mph - N/A   Clear
2:15 PM 95.0 °F 94.4 °F 59.0 °F 30% 29.83 in 10.0 mi South 5.8 mph - N/A   Clear
2:35 PM 95.0 °F 93.7 °F 57.2 °F 28% 29.81 in 10.0 mi SSE 4.6 mph - N/A   Clear
2:55 PM 96.8 °F 95.8 °F 57.2 °F 27% 29.80 in 10.0 mi Variable 5.8 mph - N/A   Clear
3:15 PM 96.8 °F 95.8 °F 57.2 °F 27% 29.80 in 10.0 mi South 6.9 mph - N/A   Clear
3:35 PM 96.8 °F 96.2 °F 59.0 °F 28% 29.79 in 10.0 mi SSE 5.8 mph - N/A   Clear
3:55 PM 96.8 °F 96.2 °F 59.0 °F 28% 29.79 in 10.0 mi SE 3.5 mph - N/A   Clear
4:15 PM 96.8 °F 95.8 °F 57.2 °F 27% 29.78 in 10.0 mi East 4.6 mph - N/A   Clear
4:35 PM 96.8 °F 95.8 °F 57.2 °F 27% 29.78 in 10.0 mi SE 5.8 mph - N/A   Clear
4:55 PM 96.8 °F 95.8 °F 57.2 °F 27% 29.78 in 10.0 mi SSE 4.6 mph - N/A   Clear
5:15 PM 96.8 °F 96.2 °F 59.0 °F 28% 29.77 in 10.0 mi Calm Calm - N/A   Clear
5:35 PM 96.8 °F 95.8 °F 57.2 °F 27% 29.78 in 10.0 mi Calm Calm - N/A   Clear
5:55 PM 96.8 °F 96.2 °F 59.0 °F 28% 29.78 in 10.0 mi SE 6.9 mph - N/A   Clear
6:15 PM 95.0 °F 94.4 °F 59.0 °F 30% 29.78 in 10.0 mi ESE 8.1 mph - N/A   Clear
6:35 PM 93.2 °F 93.3 °F 60.8 °F 34% 29.77 in 10.0 mi East 8.1 mph - N/A   Clear
6:55 PM 95.0 °F 94.4 °F 59.0 °F 30% 29.77 in 10.0 mi ESE 6.9 mph - N/A   Unknown
7:15 PM 77.0 °F - 66.2 °F 69% 29.81 in 2.0 mi SSE 29.9 mph 50.6 mph N/A   Haze
7:35 PM 71.6 °F - 66.2 °F 83% 29.89 in 1.5 mi SSE 24.2 mph 39.1 mph N/A   Haze
7:55 PM 73.4 °F - 62.6 °F 69% 29.89 in 0.5 mi ESE 13.8 mph 36.8 mph 1.16 in   Haze
8:15 PM 71.6 °F - 64.4 °F 78% 29.86 in 3.0 mi ENE 13.8 mph - N/A   Haze
8:55 PM 73.4 °F - 64.4 °F 73% 29.86 in 10.0 mi East 13.8 mph - 0.09 in   Mostly Cloudy
9:15 PM 75.2 °F - 64.4 °F 69% 29.86 in 10.0 mi ESE 13.8 mph - N/A   Mostly Cloudy
9:35 PM 73.4 °F - 66.2 °F 78% 29.87 in 10.0 mi ESE 10.4 mph - N/A   Partly Cloudy
9:55 PM 73.4 °F - 66.2 °F 78% 29.87 in 10.0 mi East 9.2 mph - N/A   Scattered Clouds
10:35 PM 75.2 °F - 66.2 °F 73% 29.87 in 10.0 mi East 10.4 mph - N/A   Partly Cloudy
10:55 PM 75.2 °F - 66.2 °F 73% 29.87 in 10.0 mi ESE 8.1 mph - N/A   Scattered Clouds
11:15 PM 75.2 °F - 66.2 °F 73% 29.87 in 10.0 mi East 9.2 mph - N/A   Partly Cloudy
11:35 PM 75.2 °F - 66.2 °F 73% 29.87 in 10.0 mi East 10.4 mph - N/A   Clear
11:55 PM 75.2 °F - 64.4 °F 69% 29.87 in 10.0 mi East 16.1 mph - N/A   Clear